Time,TemperatureF,DewpointF,PressureIn,WindDirection,WindDirectionDegrees,WindSpeedMPH,WindSpeedGustMPH,Humidity,HourlyPrecipIn,Conditions,Clouds,dailyrainin,SoftwareType,DateUTC
2013-02-14 00:04:00,72.5,71.0,29.98,SSE,163,0.0,-999.0,95,-99.99,,,0.00,weatherlink.com 1.10,2013-02-14 05:04:00,
2013-02-14 00:19:00,72.5,71.0,29.98,SSE,159,0.0,-999.0,95,-99.99,,,0.00,weatherlink.com 1.10,2013-02-14 05:19:00,
2013-02-14 00:34:00,72.5,71.0,29.97,South,169,0.0,-999.0,94,-99.99,,,0.00,weatherlink.com 1.10,2013-02-14 05:34:00,
2013-02-14 00:49:00,72.4,71.0,29.97,South,169,0.0,-999.0,94,-99.99,,,0.00,weatherlink.com 1.10,2013-02-14 05:49:00,
2013-02-14 01:04:00,72.3,71.0,29.97,SSE,165,0.0,-999.0,94,-99.99,,,0.00,weatherlink.com 1.10,2013-02-14 06:04:00,
2013-02-14 01:19:00,72.4,71.0,29.97,SSE,165,0.0,-999.0,94,-99.99,,,0.00,weatherlink.com 1.10,2013-02-14 06:19:00,
2013-02-14 01:34:00,72.5,71.0,29.98,South,190,0.0,-999.0,94,-99.99,,,0.00,weatherlink.com 1.10,2013-02-14 06:34:00,
2013-02-14 01:49:00,72.2,70.0,29.98,WNW,289,4.0,-999.0,92,-99.99,,,0.00,weatherlink.com 1.10,2013-02-14 06:49:00,
2013-02-14 02:04:00,69.4,65.0,29.98,NNE,29,1.0,-999.0,87,-99.99,,,0.00,weatherlink.com 1.10,2013-02-14 07:04:00,
2013-02-14 02:19:00,66.9,63.0,29.98,NNE,22,0.0,-999.0,88,-99.99,,,0.01,weatherlink.com 1.10,2013-02-14 07:19:00,
2013-02-14 02:34:00,65.3,62.0,29.98,NE,38,0.0,-999.0,90,-99.99,,,0.01,weatherlink.com 1.10,2013-02-14 07:34:00,
2013-02-14 02:49:00,64.3,62.0,29.98,NE,35,3.0,-999.0,91,-99.99,,,0.02,weatherlink.com 1.10,2013-02-14 07:49:00,
2013-02-14 03:04:00,63.4,61.0,29.98,ENE,67,0.0,-999.0,92,-99.99,,,0.02,weatherlink.com 1.10,2013-02-14 08:04:00,
2013-02-14 03:19:00,62.9,61.0,29.97,North,5,5.0,-999.0,92,-99.99,,,0.02,weatherlink.com 1.10,2013-02-14 08:19:00,
2013-02-14 03:34:00,62.5,60.0,29.98,NNE,24,0.0,-999.0,91,-99.99,,,0.04,weatherlink.com 1.10,2013-02-14 08:34:00,
2013-02-14 03:49:00,61.7,59.0,29.99,NNW,344,4.0,-999.0,92,-99.99,,,0.18,weatherlink.com 1.10,2013-02-14 08:49:00,
2013-02-14 04:04:00,61.0,59.0,29.99,ENE,71,4.0,-999.0,94,-99.99,,,0.28,weatherlink.com 1.10,2013-02-14 09:04:00,
2013-02-14 04:19:00,60.7,59.0,29.98,NNE,33,1.0,-999.0,94,-99.99,,,0.30,weatherlink.com 1.10,2013-02-14 09:19:00,
2013-02-14 04:34:00,60.8,59.0,29.99,ENE,59,0.0,-999.0,95,-99.99,,,0.01,weatherlink.com 1.10,2013-02-14 09:34:00,
2013-02-14 04:49:00,61.2,60.0,29.98,ENE,69,1.0,-999.0,96,-99.99,,,0.04,weatherlink.com 1.10,2013-02-14 09:49:00,
2013-02-14 05:04:00,61.3,60.0,29.98,ENE,76,4.0,-999.0,96,-99.99,,,0.05,weatherlink.com 1.10,2013-02-14 10:04:00,
2013-02-14 05:19:00,61.0,60.0,29.97,ENE,72,4.0,-999.0,96,-99.99,,,0.06,weatherlink.com 1.10,2013-02-14 10:19:00,
2013-02-14 05:34:00,61.1,60.0,29.97,NE,34,5.0,-999.0,96,-99.99,,,0.06,weatherlink.com 1.10,2013-02-14 10:34:00,
2013-02-14 05:49:00,61.3,60.0,29.97,ENE,76,4.0,-999.0,96,-99.99,,,0.06,weatherlink.com 1.10,2013-02-14 10:49:00,
2013-02-14 06:04:00,61.4,61.0,29.97,East,81,5.0,-999.0,97,-99.99,,,0.07,weatherlink.com 1.10,2013-02-14 11:04:00,
2013-02-14 06:19:00,61.5,61.0,29.97,ENE,67,4.0,-999.0,97,-99.99,,,0.07,weatherlink.com 1.10,2013-02-14 11:19:00,
2013-02-14 06:34:00,61.7,61.0,29.98,East,79,0.0,-999.0,97,-99.99,,,0.07,weatherlink.com 1.10,2013-02-14 11:34:00,
2013-02-14 06:49:00,61.8,61.0,29.98,East,88,3.0,-999.0,97,-99.99,,,0.08,weatherlink.com 1.10,2013-02-14 11:49:00,
2013-02-14 07:04:00,62.0,61.0,29.99,East,95,2.0,-999.0,97,-99.99,,,0.09,weatherlink.com 1.10,2013-02-14 12:04:00,
2013-02-14 07:19:00,62.1,61.0,29.99,ENE,69,0.0,-999.0,97,-99.99,,,0.09,weatherlink.com 1.10,2013-02-14 12:19:00,
2013-02-14 07:34:00,62.3,62.0,30.00,East,85,0.0,-999.0,97,-99.99,,,0.10,weatherlink.com 1.10,2013-02-14 12:34:00,
2013-02-14 07:49:00,62.4,62.0,30.01,East,85,0.0,-999.0,97,-99.99,,,0.11,weatherlink.com 1.10,2013-02-14 12:49:00,
2013-02-14 08:04:00,62.5,62.0,30.01,East,85,0.0,-999.0,97,-99.99,,,0.13,weatherlink.com 1.10,2013-02-14 13:04:00,
2013-02-14 08:19:00,62.8,62.0,30.01,East,85,0.0,-999.0,97,-99.99,,,0.18,weatherlink.com 1.10,2013-02-14 13:19:00,
2013-02-14 08:35:00,62.9,62.0,30.02,East,86,3.0,-999.0,97,-99.99,,,0.20,weatherlink.com 1.10,2013-02-14 13:35:00,
2013-02-14 08:50:00,63.4,63.0,30.00,ENE,66,6.0,-999.0,97,-99.99,,,0.23,weatherlink.com 1.10,2013-02-14 13:50:00,
2013-02-14 09:05:00,64.1,64.0,30.00,East,90,5.0,-999.0,98,-99.99,,,0.23,weatherlink.com 1.10,2013-02-14 14:05:00,
2013-02-14 09:20:00,64.7,64.0,30.01,ESE,107,5.0,-999.0,98,-99.99,,,0.23,weatherlink.com 1.10,2013-02-14 14:20:00,
2013-02-14 09:35:00,65.6,65.0,30.01,East,84,4.0,-999.0,98,-99.99,,,0.23,weatherlink.com 1.10,2013-02-14 14:35:00,
2013-02-14 09:50:00,66.5,66.0,30.01,South,169,7.0,-999.0,98,-99.99,,,0.23,weatherlink.com 1.10,2013-02-14 14:50:00,
2013-02-14 10:05:00,68.8,68.0,30.01,East,101,0.0,-999.0,98,-99.99,,,0.23,weatherlink.com 1.10,2013-02-14 15:05:00,
2013-02-14 10:20:00,70.4,70.0,30.01,SE,136,5.0,-999.0,97,-99.99,,,0.23,weatherlink.com 1.10,2013-02-14 15:20:00,
2013-02-14 10:35:00,71.5,70.0,30.01,ESE,121,5.0,-999.0,96,-99.99,,,0.23,weatherlink.com 1.10,2013-02-14 15:35:00,
2013-02-14 10:50:00,72.3,70.0,30.01,ESE,113,4.0,-999.0,92,-99.99,,,0.23,weatherlink.com 1.10,2013-02-14 15:50:00,
2013-02-14 11:05:00,73.2,71.0,30.00,ENE,69,4.0,-999.0,91,-99.99,,,0.23,weatherlink.com 1.10,2013-02-14 16:05:00,
2013-02-14 11:20:00,75.5,73.0,30.00,ENE,63,0.0,-999.0,92,-99.99,,,0.23,weatherlink.com 1.10,2013-02-14 16:20:00,
2013-02-14 11:35:00,77.1,72.0,29.99,NE,35,0.0,-999.0,85,-99.99,,,0.23,weatherlink.com 1.10,2013-02-14 16:35:00,
2013-02-14 11:50:00,77.2,72.0,29.99,ENE,66,0.0,-999.0,83,-99.99,,,0.23,weatherlink.com 1.10,2013-02-14 16:50:00,